GEFSMA_prec_meanprecacc_228.txt.gz
Total_Precipitation_Accumulation
0.79 0.80 0.76 0.83 0.80 0.81 0.89 0.87 0.74 0.72 0.68 0.58 0.56 0.59 0.68 0.68 0.80 0.87 1.03 1.32 1.75 2.16 2.21 2.01 1.76 1.58 1.58 1.63 1.62 1.64 1.65 1.72 1.86 2.00 1.86 1.73 1.71 1.58 1.46 1.69 1.88 2.09 2.24
0.66 0.78 0.78 0.85 0.77 0.83 0.95 0.85 0.75 0.76 0.76 0.66 0.59 0.64 0.68 0.71 0.78 0.92 1.04 1.22 1.44 1.87 2.26 2.33 2.16 1.95 1.80 1.84 1.90 1.97 1.82 1.71 1.73 1.90 1.87 1.69 1.59 1.46 1.38 1.52 1.83 1.96 2.19
0.64 0.76 0.82 0.82 0.80 0.85 0.89 0.92 0.91 0.85 0.76 0.69 0.67 0.66 0.67 0.71 0.88 1.00 1.04 1.17 1.18 1.24 1.71 2.28 2.51 2.42 2.21 2.15 2.11 2.05 1.95 1.82 1.70 1.76 1.83 1.69 1.56 1.39 1.38 1.40 1.57 1.61 1.86
0.69 0.88 0.93 0.83 0.89 1.00 1.06 1.11 1.07 0.98 0.88 0.85 0.87 0.84 0.77 0.82 1.02 1.11 1.05 1.00 1.03 0.96 1.08 1.42 1.78 2.06 2.32 2.39 2.35 2.17 2.04 1.90 1.66 1.67 1.68 1.67 1.51 1.29 1.24 1.28 1.38 1.45 1.54
0.89 1.06 1.13 1.05 1.03 1.19 1.19 1.08 1.13 1.17 1.08 1.10 1.07 1.07 0.98 0.98 1.04 1.00 1.00 1.07 1.11 1.09 1.09 0.96 1.10 1.35 1.86 2.26 2.45 2.53 2.27 2.14 1.86 1.77 1.70 1.51 1.38 1.29 1.23 1.21 1.24 1.33 1.37
1.13 1.29 1.39 1.35 1.31 1.45 1.46 1.35 1.46 1.47 1.39 1.45 1.32 1.22 1.16 1.14 1.12 1.09 1.09 1.17 1.27 1.18 1.20 1.08 1.01 0.87 1.10 1.56 2.08 2.49 2.40 2.31 2.10 1.87 1.79 1.48 1.35 1.23 1.17 1.18 1.21 1.25 1.31
1.53 1.64 1.62 1.84 1.92 1.91 1.91 1.86 1.99 2.03 1.78 1.62 1.94 1.91 1.53 1.24 1.12 1.20 1.28 1.32 1.41 1.43 1.37 1.30 1.22 1.04 0.95 1.04 1.35 2.04 2.30 2.31 2.14 1.98 1.99 1.73 1.43 1.28 1.20 1.23 1.28 1.26 1.35
1.88 1.80 1.88 2.10 2.16 2.28 2.37 2.22 2.36 2.46 2.14 1.85 2.28 2.74 2.32 1.89 1.30 1.08 1.20 1.33 1.47 1.53 1.45 1.34 1.33 1.28 1.18 1.16 1.05 1.39 1.90 2.26 2.24 2.12 2.10 2.04 1.68 1.47 1.27 1.25 1.30 1.30 1.29
2.27 2.16 2.11 2.24 2.27 2.35 2.56 2.61 2.56 2.68 2.61 2.27 2.24 2.71 2.67 2.34 1.94 1.41 1.24 1.30 1.44 1.55 1.62 1.63 1.47 1.44 1.34 1.35 1.34 1.14 1.27 1.64 2.03 2.13 2.12 2.12 1.97 1.71 1.46 1.34 1.33 1.26 1.17
2.44 2.38 2.33 2.40 2.41 2.38 2.51 2.60 2.57 2.80 3.01 2.75 2.47 2.24 2.19 2.24 2.30 1.92 1.50 1.36 1.47 1.54 1.67 1.65 1.68 1.73 1.67 1.59 1.53 1.24 1.06 1.16 1.53 1.95 2.13 2.23 2.16 1.92 1.65 1.50 1.54 1.40 1.27
2.18 2.14 2.25 2.41 2.42 2.41 2.43 2.60 2.71 2.91 2.93 2.86 2.73 2.58 2.42 2.25 1.93 2.01 1.92 1.66 1.61 1.51 1.61 1.80 1.88 1.93 1.85 1.92 1.97 1.49 1.14 1.05 1.26 1.64 2.07 2.29 2.35 2.28 2.01 1.75 1.66 1.65 1.60
2.01 1.91 2.01 2.11 2.20 2.26 2.26 2.31 2.45 2.61 2.81 2.95 2.89 2.70 2.63 2.57 2.39 2.24 1.94 1.79 1.85 1.68 1.57 1.61 1.73 1.82 1.97 2.02 1.90 1.73 1.27 1.08 1.15 1.25 1.53 1.99 2.32 2.51 2.42 2.24 2.07 1.94 1.94
1.95 1.88 1.85 1.90 1.97 2.02 2.12 2.30 2.29 2.33 2.52 2.72 2.73 2.66 2.66 2.51 2.43 2.47 2.24 1.90 1.81 1.69 1.59 1.53 1.52 1.61 1.72 1.82 1.86 1.76 1.33 1.20 1.15 1.10 1.05 1.15 1.54 2.02 2.42 2.55 2.54 2.34 2.32
1.57 1.55 1.59 1.67 1.81 1.90 2.00 2.14 2.20 2.17 2.25 2.32 2.35 2.49 2.57 2.48 2.28 2.23 2.25 2.31 2.06 1.82 1.63 1.49 1.43 1.46 1.55 1.58 1.70 1.69 1.27 1.13 1.09 1.03 0.97 0.86 0.93 1.18 1.60 1.96 2.11 2.24 2.44
1.18 1.21 1.28 1.41 1.60 1.73 1.78 1.88 2.02 2.03 2.09 2.09 2.16 2.23 2.25 2.30 2.18 2.01 1.98 2.08 2.21 2.00 1.84 1.65 1.44 1.26 1.35 1.36 1.44 1.26 1.20 1.14 1.02 0.95 0.91 0.84 0.78 0.82 1.02 1.35 1.48 1.45 1.55
1.06 1.16 1.18 1.24 1.37 1.46 1.55 1.71 1.85 1.94 1.98 1.95 1.93 2.00 2.05 2.11 2.12 2.10 2.06 2.05 2.04 1.98 1.88 1.68 1.40 1.14 1.21 1.28 1.43 1.24 1.28 1.36 1.15 1.00 0.89 0.87 0.84 0.79 0.84 0.97 1.06 0.96 0.92
1.07 1.13 1.17 1.21 1.23 1.31 1.37 1.48 1.62 1.76 1.80 1.81 1.70 1.73 1.84 1.90 2.07 2.12 2.09 2.04 2.01 1.93 1.80 1.71 1.46 1.23 1.23 1.31 1.38 1.31 1.34 1.34 1.17 1.08 0.99 0.94 0.85 0.88 0.91 0.93 1.01 0.93 0.79
0.94 1.03 1.14 1.12 1.12 1.17 1.25 1.36 1.45 1.51 1.62 1.59 1.50 1.51 1.62 1.68 1.82 1.94 2.04 1.95 1.95 1.90 1.89 1.84 1.61 1.38 1.31 1.33 1.39 1.37 1.28 1.26 1.24 1.22 1.12 1.05 0.96 0.89 0.94 0.93 1.02 1.07 0.98
0.86 0.98 1.12 1.24 1.15 1.05 1.15 1.25 1.28 1.32 1.34 1.28 1.27 1.32 1.37 1.43 1.56 1.67 1.77 1.86 1.87 1.80 1.90 1.89 1.68 1.44 1.32 1.30 1.34 1.32 1.29 1.35 1.25 1.26 1.22 1.12 1.07 1.00 1.00 1.00 0.99 1.07 1.06
0.69 0.75 0.89 1.01 1.07 1.04 1.00 1.02 1.05 1.20 1.20 1.12 1.03 1.03 1.05 1.08 1.19 1.32 1.43 1.58 1.74 1.87 1.95 1.97 1.82 1.54 1.36 1.32 1.37 1.43 1.43 1.37 1.38 1.26 1.26 1.25 1.23 1.18 1.12 1.11 1.02 0.99 1.04
0.55 0.62 0.79 0.96 1.02 1.02 1.05 1.04 0.98 1.02 1.08 1.10 1.03 0.92 0.85 0.84 0.94 1.02 1.12 1.38 1.58 1.74 1.89 1.95 1.88 1.70 1.52 1.43 1.37 1.37 1.47 1.58 1.58 1.42 1.35 1.26 1.23 1.11 1.01 1.04 1.03 0.96 0.94
0.51 0.54 0.63 0.79 0.94 0.92 1.08 1.13 1.05 0.96 0.97 0.98 0.98 0.96 0.95 0.90 0.79 0.75 0.81 0.98 1.22 1.43 1.62 1.74 1.78 1.65 1.48 1.43 1.47 1.47 1.46 1.53 1.60 1.45 1.41 1.48 1.41 1.27 1.13 1.02 1.08 1.01 0.94
0.50 0.50 0.57 0.69 0.83 0.97 1.00 0.89 0.97 0.98 0.95 0.95 0.93 0.92 0.94 0.94 0.99 0.88 0.82 0.80 0.84 1.01 1.26 1.48 1.51 1.48 1.54 1.46 1.41 1.36 1.34 1.34 1.36 1.38 1.40 1.45 1.44 1.32 1.15 1.09 1.19 1.13 1.05
0.49 0.50 0.52 0.57 0.64 0.83 0.88 0.78 0.96 1.00 1.01 1.00 0.98 0.99 1.02 1.05 1.02 1.13 1.10 1.00 0.93 0.92 1.02 0.97 1.08 1.36 1.48 1.49 1.47 1.48 1.51 1.43 1.36 1.34 1.30 1.34 1.29 1.24 1.13 1.06 1.12 1.06 1.00
0.49 0.47 0.46 0.48 0.51 0.59 0.69 0.66 0.80 0.94 1.05 1.05 0.95 0.94 0.99 1.03 1.22 1.26 1.17 1.15 1.07 1.01 1.15 1.16 1.18 1.25 1.33 1.33 1.33 1.41 1.47 1.43 1.37 1.30 1.23 1.15 1.12 1.20 1.25 1.16 1.12 1.17 1.11
0.58 0.50 0.46 0.44 0.47 0.49 0.62 0.51 0.63 0.80 0.97 1.09 1.02 0.96 1.11 1.07 1.08 1.04 1.00 1.19 1.17 1.06 0.97 0.94 0.95 1.01 1.03 1.08 1.16 1.18 1.33 1.35 1.29 1.30 1.19 1.14 1.10 1.18 1.25 1.17 1.05 1.03 1.07

GEFSMA_prec_meanprecacc_234.txt.gz
Total_Precipitation_Accumulation
0.83 0.82 0.77 0.84 0.82 0.84 0.92 0.89 0.77 0.78 0.73 0.61 0.58 0.60 0.69 0.68 0.81 0.89 1.05 1.37 1.82 2.24 2.30 2.11 1.84 1.65 1.66 1.70 1.67 1.70 1.69 1.75 1.88 2.02 1.90 1.79 1.77 1.64 1.52 1.74 1.95 2.15 2.30
0.67 0.79 0.79 0.87 0.82 0.89 0.98 0.86 0.79 0.81 0.81 0.69 0.62 0.66 0.69 0.71 0.79 0.93 1.04 1.24 1.48 1.93 2.36 2.42 2.24 2.03 1.87 1.90 1.96 2.04 1.86 1.74 1.78 1.96 1.92 1.74 1.66 1.54 1.45 1.57 1.88 2.01 2.25
0.64 0.77 0.83 0.86 0.87 0.91 0.93 0.94 0.94 0.88 0.80 0.72 0.69 0.67 0.67 0.72 0.89 1.01 1.05 1.19 1.20 1.28 1.76 2.34 2.56 2.49 2.27 2.23 2.21 2.14 2.01 1.88 1.77 1.82 1.87 1.71 1.60 1.44 1.42 1.44 1.61 1.64 1.89
0.69 0.88 0.94 0.85 0.92 1.03 1.09 1.12 1.09 1.00 0.90 0.87 0.89 0.85 0.78 0.82 1.03 1.12 1.06 1.02 1.06 0.99 1.12 1.47 1.82 2.11 2.39 2.48 2.46 2.29 2.12 1.99 1.76 1.73 1.73 1.71 1.55 1.33 1.27 1.32 1.43 1.49 1.57
0.89 1.06 1.14 1.05 1.04 1.20 1.20 1.09 1.14 1.18 1.09 1.11 1.07 1.07 0.99 0.99 1.05 1.01 1.02 1.09 1.14 1.12 1.12 0.99 1.13 1.38 1.91 2.34 2.57 2.70 2.41 2.28 2.02 1.88 1.75 1.56 1.42 1.32 1.26 1.24 1.28 1.37 1.41
1.13 1.29 1.39 1.35 1.31 1.45 1.47 1.35 1.48 1.49 1.40 1.46 1.32 1.22 1.17 1.15 1.13 1.10 1.11 1.20 1.31 1.21 1.22 1.10 1.03 0.89 1.13 1.60 2.15 2.60 2.54 2.45 2.24 1.96 1.84 1.52 1.39 1.26 1.20 1.22 1.25 1.29 1.35
1.53 1.64 1.62 1.85 1.92 1.91 1.92 1.87 2.01 2.05 1.80 1.63 1.95 1.93 1.54 1.25 1.13 1.21 1.30 1.35 1.46 1.46 1.39 1.32 1.24 1.06 0.96 1.08 1.43 2.18 2.43 2.42 2.23 2.04 2.03 1.76 1.46 1.31 1.23 1.25 1.32 1.30 1.38
1.88 1.80 1.88 2.11 2.17 2.29 2.39 2.24 2.38 2.48 2.16 1.86 2.30 2.77 2.34 1.91 1.31 1.09 1.23 1.38 1.55 1.57 1.47 1.36 1.34 1.30 1.21 1.21 1.15 1.55 2.01 2.33 2.31 2.17 2.13 2.06 1.70 1.50 1.30 1.28 1.33 1.33 1.33
2.28 2.16 2.11 2.25 2.28 2.36 2.58 2.62 2.57 2.69 2.63 2.28 2.24 2.74 2.71 2.37 1.96 1.43 1.27 1.34 1.51 1.61 1.64 1.64 1.48 1.46 1.36 1.38 1.38 1.18 1.31 1.68 2.06 2.16 2.15 2.14 1.98 1.73 1.48 1.36 1.36 1.29 1.19
2.44 2.39 2.33 2.40 2.42 2.39 2.53 2.61 2.58 2.81 3.03 2.77 2.49 2.26 2.21 2.26 2.32 1.94 1.52 1.39 1.52 1.60 1.71 1.67 1.69 1.74 1.69 1.60 1.55 1.26 1.07 1.17 1.54 1.97 2.14 2.25 2.19 1.95 1.68 1.53 1.56 1.41 1.28
2.19 2.15 2.25 2.41 2.43 2.42 2.44 2.61 2.72 2.92 2.94 2.88 2.75 2.60 2.43 2.27 1.94 2.02 1.93 1.68 1.64 1.55 1.66 1.82 1.89 1.93 1.86 1.93 1.98 1.50 1.15 1.06 1.27 1.65 2.09 2.31 2.37 2.31 2.03 1.77 1.68 1.67 1.62
2.02 1.92 2.02 2.11 2.20 2.27 2.26 2.31 2.46 2.62 2.82 2.97 2.90 2.72 2.66 2.60 2.41 2.25 1.95 1.81 1.87 1.71 1.61 1.64 1.74 1.83 1.97 2.02 1.91 1.73 1.28 1.09 1.16 1.26 1.53 2.00 2.33 2.53 2.44 2.27 2.11 1.98 1.97
1.95 1.89 1.85 1.91 1.98 2.02 2.12 2.30 2.30 2.34 2.53 2.73 2.74 2.67 2.67 2.52 2.44 2.48 2.25 1.91 1.82 1.71 1.62 1.55 1.53 1.62 1.72 1.83 1.87 1.76 1.33 1.20 1.15 1.10 1.05 1.16 1.55 2.03 2.43 2.56 2.56 2.36 2.34
1.57 1.55 1.60 1.68 1.82 1.91 2.00 2.15 2.21 2.17 2.25 2.32 2.35 2.49 2.58 2.49 2.29 2.24 2.26 2.33 2.08 1.84 1.66 1.51 1.44 1.47 1.55 1.59 1.71 1.70 1.27 1.13 1.09 1.03 0.98 0.86 0.93 1.18 1.61 1.97 2.11 2.24 2.45
1.19 1.22 1.28 1.41 1.61 1.73 1.78 1.89 2.04 2.04 2.09 2.09 2.16 2.23 2.25 2.31 2.18 2.02 1.99 2.09 2.22 2.02 1.86 1.67 1.46 1.27 1.36 1.37 1.44 1.26 1.21 1.14 1.03 0.96 0.92 0.84 0.78 0.82 1.03 1.36 1.48 1.45 1.56
1.06 1.16 1.18 1.25 1.37 1.47 1.56 1.72 1.86 1.95 1.98 1.95 1.94 2.01 2.05 2.11 2.13 2.10 2.06 2.06 2.05 1.99 1.89 1.71 1.42 1.15 1.22 1.29 1.44 1.25 1.28 1.37 1.16 1.01 0.90 0.88 0.85 0.80 0.84 0.97 1.06 0.96 0.92
1.07 1.13 1.17 1.21 1.23 1.32 1.37 1.48 1.63 1.78 1.80 1.81 1.71 1.74 1.84 1.91 2.08 2.12 2.09 2.05 2.02 1.93 1.81 1.72 1.47 1.24 1.24 1.32 1.39 1.31 1.35 1.35 1.18 1.09 1.00 0.94 0.85 0.88 0.91 0.94 1.01 0.93 0.79
0.94 1.03 1.14 1.13 1.12 1.17 1.26 1.36 1.45 1.52 1.63 1.59 1.50 1.52 1.62 1.69 1.83 1.95 2.05 1.96 1.96 1.91 1.90 1.85 1.62 1.39 1.32 1.34 1.41 1.39 1.29 1.27 1.24 1.23 1.12 1.05 0.96 0.89 0.94 0.93 1.03 1.07 0.99
0.86 0.98 1.12 1.24 1.16 1.06 1.16 1.25 1.29 1.32 1.34 1.29 1.27 1.32 1.37 1.44 1.57 1.68 1.78 1.87 1.88 1.81 1.91 1.90 1.69 1.45 1.33 1.31 1.34 1.33 1.30 1.36 1.26 1.26 1.23 1.12 1.08 1.00 1.00 1.00 0.99 1.07 1.06
0.70 0.75 0.89 1.01 1.07 1.04 1.01 1.02 1.05 1.20 1.21 1.12 1.04 1.03 1.06 1.08 1.19 1.33 1.44 1.59 1.75 1.88 1.96 1.98 1.83 1.54 1.36 1.33 1.37 1.43 1.44 1.38 1.39 1.26 1.26 1.25 1.23 1.19 1.12 1.11 1.02 0.99 1.04
0.56 0.63 0.79 0.96 1.02 1.03 1.05 1.05 0.98 1.02 1.08 1.11 1.04 0.93 0.85 0.85 0.94 1.03 1.13 1.39 1.59 1.75 1.90 1.96 1.88 1.70 1.52 1.43 1.38 1.38 1.47 1.58 1.59 1.42 1.36 1.27 1.23 1.11 1.01 1.04 1.03 0.96 0.94
0.52 0.54 0.63 0.79 0.94 0.92 1.08 1.13 1.05 0.96 0.97 0.98 0.98 0.96 0.95 0.91 0.79 0.75 0.82 0.99 1.23 1.44 1.63 1.75 1.79 1.65 1.48 1.44 1.47 1.47 1.46 1.54 1.60 1.45 1.41 1.48 1.41 1.27 1.13 1.02 1.09 1.01 0.94
0.51 0.51 0.57 0.70 0.84 0.98 1.01 0.90 0.97 0.99 0.95 0.96 0.93 0.92 0.95 0.94 0.99 0.89 0.83 0.81 0.85 1.02 1.27 1.48 1.52 1.48 1.54 1.46 1.41 1.36 1.34 1.34 1.36 1.38 1.40 1.45 1.44 1.32 1.15 1.09 1.19 1.13 1.06
0.50 0.51 0.53 0.57 0.65 0.84 0.89 0.79 0.97 1.01 1.01 1.01 0.99 1.00 1.03 1.06 1.02 1.13 1.11 1.01 0.94 0.93 1.03 0.98 1.08 1.37 1.48 1.49 1.48 1.48 1.51 1.43 1.36 1.35 1.30 1.34 1.29 1.25 1.13 1.06 1.12 1.06 1.00
0.50 0.48 0.47 0.48 0.52 0.61 0.70 0.67 0.81 0.96 1.07 1.07 0.97 0.95 1.01 1.03 1.23 1.27 1.18 1.15 1.08 1.02 1.16 1.17 1.19 1.26 1.33 1.34 1.34 1.42 1.48 1.43 1.37 1.31 1.24 1.16 1.12 1.21 1.25 1.16 1.12 1.17 1.11
0.58 0.51 0.46 0.45 0.48 0.51 0.64 0.53 0.64 0.81 0.99 1.12 1.05 0.98 1.13 1.09 1.10 1.05 1.02 1.20 1.18 1.07 0.98 0.94 0.96 1.02 1.04 1.10 1.17 1.19 1.34 1.36 1.30 1.30 1.19 1.14 1.10 1.18 1.25 1.17 1.05 1.03 1.07

GEFSMA_prec_meanprecacc_240.txt.gz
Total_Precipitation_Accumulation
0.84 0.83 0.79 0.86 0.84 0.86 0.94 0.91 0.79 0.80 0.75 0.63 0.61 0.63 0.72 0.73 0.85 0.94 1.10 1.41 1.87 2.30 2.36 2.18 1.88 1.70 1.70 1.74 1.69 1.71 1.71 1.77 1.91 2.05 1.93 1.83 1.80 1.69 1.58 1.80 1.99 2.19 2.35
0.68 0.80 0.81 0.90 0.85 0.91 0.99 0.88 0.80 0.83 0.83 0.71 0.65 0.69 0.72 0.74 0.81 0.96 1.07 1.26 1.50 1.97 2.41 2.48 2.28 2.08 1.92 1.94 2.00 2.06 1.88 1.78 1.82 2.00 1.98 1.80 1.71 1.59 1.50 1.61 1.93 2.05 2.29
0.66 0.79 0.87 0.91 0.90 0.93 0.94 0.95 0.95 0.90 0.83 0.75 0.73 0.71 0.70 0.73 0.90 1.02 1.06 1.20 1.22 1.30 1.79 2.38 2.60 2.53 2.31 2.27 2.25 2.18 2.05 1.92 1.82 1.87 1.93 1.77 1.65 1.48 1.47 1.49 1.66 1.69 1.93
0.70 0.91 0.98 0.90 0.95 1.05 1.11 1.15 1.11 1.03 0.94 0.91 0.93 0.89 0.79 0.84 1.04 1.14 1.07 1.04 1.09 1.02 1.15 1.49 1.85 2.14 2.42 2.52 2.53 2.36 2.19 2.06 1.82 1.78 1.77 1.74 1.59 1.37 1.31 1.36 1.47 1.53 1.61
0.90 1.07 1.15 1.07 1.06 1.23 1.22 1.12 1.17 1.22 1.14 1.15 1.10 1.09 1.01 1.01 1.07 1.03 1.03 1.10 1.16 1.14 1.15 1.03 1.15 1.40 1.94 2.40 2.67 2.84 2.58 2.41 2.12 1.95 1.81 1.60 1.45 1.36 1.29 1.27 1.32 1.41 1.46
1.13 1.29 1.39 1.35 1.32 1.46 1.48 1.37 1.50 1.52 1.44 1.48 1.34 1.24 1.18 1.16 1.15 1.13 1.12 1.21 1.33 1.23 1.24 1.13 1.05 0.90 1.15 1.64 2.21 2.69 2.71 2.63 2.39 2.08 1.93 1.58 1.43 1.30 1.23 1.25 1.29 1.33 1.39
1.53 1.65 1.62 1.85 1.92 1.92 1.93 1.89 2.04 2.09 1.83 1.66 1.98 1.95 1.56 1.27 1.16 1.23 1.32 1.36 1.47 1.48 1.42 1.35 1.27 1.07 0.98 1.11 1.48 2.24 2.53 2.53 2.34 2.13 2.09 1.81 1.50 1.34 1.25 1.28 1.35 1.33 1.41
1.89 1.80 1.88 2.12 2.18 2.30 2.41 2.26 2.41 2.52 2.19 1.90 2.35 2.82 2.39 1.93 1.33 1.11 1.24 1.39 1.56 1.59 1.51 1.39 1.36 1.32 1.23 1.24 1.20 1.62 2.10 2.41 2.37 2.21 2.17 2.09 1.72 1.51 1.33 1.31 1.35 1.37 1.36
2.29 2.17 2.12 2.26 2.29 2.38 2.61 2.65 2.59 2.73 2.68 2.33 2.29 2.81 2.77 2.41 1.98 1.44 1.28 1.35 1.53 1.65 1.69 1.67 1.51 1.49 1.39 1.41 1.44 1.28 1.38 1.73 2.10 2.20 2.18 2.18 2.01 1.74 1.50 1.38 1.39 1.32 1.22
2.45 2.39 2.34 2.41 2.44 2.41 2.55 2.62 2.59 2.85 3.09 2.83 2.54 2.30 2.24 2.29 2.34 1.95 1.54 1.40 1.53 1.63 1.76 1.71 1.72 1.77 1.71 1.64 1.60 1.30 1.10 1.19 1.57 2.00 2.17 2.28 2.21 1.98 1.71 1.56 1.59 1.44 1.30
2.19 2.15 2.26 2.42 2.44 2.43 2.45 2.62 2.74 2.95 2.99 2.94 2.81 2.65 2.46 2.31 1.97 2.04 1.95 1.70 1.65 1.56 1.69 1.86 1.92 1.95 1.88 1.96 2.01 1.52 1.15 1.06 1.27 1.67 2.11 2.33 2.40 2.33 2.06 1.80 1.70 1.69 1.64
2.02 1.92 2.02 2.12 2.21 2.27 2.27 2.33 2.49 2.65 2.85 3.00 2.94 2.77 2.71 2.65 2.45 2.27 1.97 1.82 1.88 1.73 1.63 1.67 1.76 1.85 1.99 2.04 1.92 1.74 1.28 1.09 1.17 1.27 1.55 2.02 2.34 2.55 2.46 2.29 2.13 1.99 1.98
1.98 1.90 1.86 1.91 1.98 2.03 2.13 2.31 2.31 2.36 2.55 2.74 2.76 2.70 2.71 2.56 2.48 2.50 2.27 1.92 1.84 1.73 1.64 1.58 1.55 1.64 1.73 1.84 1.88 1.78 1.34 1.22 1.16 1.11 1.06 1.16 1.55 2.04 2.44 2.58 2.58 2.37 2.35
1.60 1.57 1.61 1.69 1.82 1.91 2.00 2.16 2.22 2.18 2.26 2.33 2.36 2.50 2.60 2.51 2.32 2.26 2.29 2.34 2.09 1.85 1.67 1.53 1.46 1.49 1.57 1.60 1.72 1.72 1.28 1.14 1.09 1.04 0.98 0.86 0.94 1.19 1.62 1.99 2.13 2.26 2.46
1.21 1.23 1.29 1.42 1.61 1.74 1.79 1.89 2.05 2.04 2.10 2.10 2.17 2.24 2.26 2.32 2.19 2.03 2.01 2.11 2.24 2.04 1.88 1.69 1.47 1.28 1.37 1.37 1.44 1.26 1.21 1.14 1.03 0.96 0.92 0.85 0.79 0.83 1.03 1.37 1.50 1.46 1.56
1.07 1.16 1.18 1.25 1.38 1.47 1.56 1.72 1.87 1.95 1.99 1.96 1.95 2.02 2.06 2.12 2.13 2.11 2.08 2.08 2.06 2.00 1.91 1.72 1.43 1.16 1.23 1.30 1.45 1.25 1.29 1.37 1.17 1.02 0.91 0.89 0.86 0.81 0.84 0.97 1.06 0.97 0.93
1.07 1.14 1.18 1.21 1.23 1.32 1.38 1.49 1.63 1.78 1.81 1.82 1.71 1.74 1.85 1.91 2.08 2.13 2.10 2.06 2.03 1.94 1.82 1.73 1.49 1.26 1.25 1.33 1.40 1.32 1.35 1.35 1.18 1.10 1.01 0.95 0.86 0.89 0.92 0.94 1.01 0.94 0.80
0.94 1.03 1.15 1.13 1.12 1.17 1.26 1.36 1.46 1.52 1.63 1.60 1.50 1.52 1.63 1.69 1.83 1.95 2.05 1.96 1.96 1.91 1.91 1.86 1.64 1.42 1.35 1.36 1.44 1.40 1.29 1.27 1.25 1.24 1.13 1.06 0.97 0.90 0.95 0.93 1.03 1.08 0.99
0.87 0.98 1.12 1.24 1.16 1.06 1.16 1.25 1.29 1.32 1.34 1.29 1.28 1.33 1.38 1.44 1.57 1.68 1.78 1.87 1.89 1.81 1.91 1.91 1.70 1.48 1.36 1.32 1.36 1.34 1.30 1.36 1.26 1.27 1.23 1.13 1.08 1.01 1.01 1.00 0.99 1.07 1.07
0.70 0.75 0.90 1.01 1.07 1.04 1.01 1.02 1.06 1.21 1.22 1.13 1.04 1.04 1.06 1.08 1.20 1.33 1.44 1.59 1.76 1.88 1.96 1.99 1.84 1.56 1.38 1.33 1.38 1.43 1.44 1.38 1.39 1.27 1.27 1.25 1.24 1.19 1.12 1.12 1.02 0.99 1.05
0.56 0.63 0.79 0.96 1.03 1.03 1.05 1.05 0.99 1.04 1.10 1.12 1.05 0.93 0.86 0.85 0.95 1.03 1.13 1.39 1.59 1.76 1.90 1.97 1.89 1.72 1.53 1.44 1.39 1.39 1.48 1.59 1.59 1.43 1.36 1.27 1.23 1.11 1.01 1.04 1.03 0.97 0.94
0.53 0.55 0.64 0.79 0.95 0.92 1.08 1.13 1.06 0.98 0.98 0.99 0.99 0.97 0.96 0.91 0.79 0.76 0.82 0.99 1.23 1.44 1.63 1.76 1.79 1.66 1.49 1.45 1.49 1.49 1.48 1.55 1.61 1.46 1.42 1.48 1.41 1.28 1.13 1.03 1.09 1.01 0.94
0.53 0.52 0.58 0.71 0.84 0.98 1.01 0.90 0.97 0.99 0.96 0.97 0.95 0.94 0.96 0.95 0.99 0.89 0.83 0.82 0.85 1.02 1.27 1.49 1.53 1.49 1.55 1.47 1.43 1.38 1.36 1.36 1.37 1.39 1.41 1.45 1.45 1.32 1.15 1.09 1.19 1.13 1.06
0.51 0.51 0.53 0.58 0.66 0.84 0.90 0.79 0.98 1.01 1.02 1.03 1.00 1.01 1.05 1.07 1.03 1.14 1.11 1.01 0.94 0.93 1.03 0.98 1.09 1.37 1.49 1.50 1.49 1.50 1.53 1.45 1.38 1.36 1.31 1.35 1.30 1.25 1.14 1.06 1.12 1.06 1.00
0.51 0.49 0.48 0.49 0.53 0.61 0.71 0.68 0.82 0.97 1.08 1.08 0.98 0.96 1.02 1.04 1.24 1.28 1.19 1.16 1.08 1.02 1.17 1.18 1.20 1.26 1.34 1.35 1.35 1.43 1.50 1.45 1.39 1.32 1.25 1.16 1.12 1.21 1.26 1.16 1.12 1.17 1.11
0.60 0.52 0.48 0.46 0.50 0.52 0.65 0.53 0.65 0.82 1.00 1.13 1.06 0.99 1.14 1.10 1.11 1.06 1.02 1.21 1.18 1.07 0.98 0.95 0.96 1.02 1.04 1.10 1.17 1.20 1.35 1.38 1.32 1.32 1.20 1.15 1.11 1.19 1.26 1.18 1.05 1.03 1.07

GEFSMA_prec_meanprecacc_246.txt.gz
Total_Precipitation_Accumulation
0.85 0.84 0.80 0.87 0.85 0.88 0.95 0.93 0.80 0.81 0.75 0.63 0.61 0.64 0.73 0.74 0.86 0.96 1.12 1.46 1.93 2.36 2.42 2.25 1.94 1.74 1.73 1.76 1.72 1.74 1.74 1.79 1.93 2.08 1.96 1.86 1.83 1.73 1.63 1.84 2.06 2.28 2.44
0.70 0.81 0.82 0.91 0.87 0.93 1.01 0.89 0.82 0.85 0.84 0.72 0.66 0.70 0.73 0.75 0.83 0.97 1.08 1.28 1.53 2.02 2.47 2.54 2.34 2.13 1.97 1.99 2.05 2.09 1.91 1.80 1.84 2.03 2.01 1.83 1.75 1.63 1.53 1.64 1.97 2.11 2.36
0.66 0.80 0.88 0.92 0.91 0.94 0.96 0.97 0.97 0.92 0.84 0.76 0.76 0.74 0.72 0.74 0.91 1.03 1.07 1.20 1.23 1.31 1.82 2.43 2.66 2.58 2.37 2.34 2.31 2.24 2.09 1.96 1.85 1.91 1.97 1.83 1.69 1.52 1.51 1.53 1.69 1.72 1.97
0.71 0.92 0.99 0.91 0.96 1.07 1.12 1.16 1.12 1.04 0.96 0.95 0.96 0.90 0.81 0.85 1.05 1.14 1.08 1.04 1.09 1.02 1.16 1.52 1.88 2.19 2.48 2.58 2.59 2.42 2.25 2.11 1.86 1.82 1.81 1.79 1.64 1.41 1.36 1.41 1.51 1.57 1.65
0.91 1.08 1.16 1.08 1.07 1.23 1.23 1.13 1.18 1.23 1.18 1.20 1.12 1.10 1.03 1.03 1.08 1.04 1.04 1.11 1.16 1.14 1.16 1.04 1.18 1.44 1.98 2.45 2.74 2.92 2.66 2.47 2.18 2.01 1.87 1.65 1.49 1.39 1.33 1.32 1.36 1.46 1.50
1.15 1.30 1.41 1.38 1.33 1.47 1.50 1.38 1.52 1.58 1.48 1.51 1.35 1.25 1.19 1.17 1.16 1.14 1.14 1.22 1.33 1.23 1.24 1.14 1.08 0.93 1.18 1.69 2.27 2.76 2.79 2.73 2.51 2.18 2.00 1.64 1.48 1.34 1.27 1.28 1.32 1.37 1.44
1.54 1.67 1.65 1.88 1.94 1.93 1.95 1.91 2.08 2.12 1.84 1.67 1.99 1.96 1.56 1.27 1.17 1.24 1.33 1.37 1.48 1.49 1.43 1.36 1.28 1.08 0.99 1.14 1.53 2.32 2.62 2.63 2.49 2.25 2.17 1.86 1.54 1.37 1.28 1.30 1.37 1.36 1.44
1.89 1.82 1.91 2.15 2.21 2.32 2.43 2.28 2.43 2.53 2.21 1.91 2.36 2.83 2.40 1.94 1.35 1.12 1.24 1.40 1.57 1.60 1.52 1.40 1.39 1.34 1.25 1.25 1.25 1.73 2.20 2.50 2.46 2.31 2.24 2.13 1.75 1.53 1.35 1.33 1.37 1.38 1.38
2.29 2.17 2.13 2.27 2.31 2.41 2.64 2.68 2.62 2.75 2.69 2.34 2.30 2.82 2.78 2.42 1.99 1.46 1.29 1.37 1.55 1.66 1.71 1.69 1.53 1.52 1.44 1.48 1.53 1.35 1.46 1.79 2.18 2.27 2.24 2.22 2.04 1.76 1.52 1.41 1.41 1.34 1.24
2.45 2.40 2.35 2.43 2.46 2.45 2.58 2.65 2.63 2.88 3.11 2.85 2.55 2.31 2.26 2.31 2.35 1.96 1.55 1.41 1.54 1.65 1.78 1.73 1.74 1.80 1.77 1.71 1.66 1.35 1.15 1.23 1.60 2.04 2.20 2.31 2.25 2.02 1.75 1.61 1.62 1.45 1.31
2.19 2.15 2.26 2.42 2.45 2.46 2.47 2.65 2.77 2.98 3.02 2.97 2.84 2.67 2.48 2.32 1.98 2.05 1.96 1.70 1.66 1.58 1.71 1.88 1.95 1.99 1.93 2.00 2.05 1.55 1.19 1.09 1.30 1.69 2.13 2.37 2.45 2.39 2.11 1.84 1.73 1.71 1.65
2.03 1.93 2.04 2.13 2.22 2.29 2.30 2.35 2.51 2.67 2.88 3.02 2.96 2.79 2.72 2.66 2.46 2.28 1.98 1.83 1.89 1.74 1.65 1.69 1.80 1.88 2.01 2.06 1.94 1.75 1.30 1.11 1.19 1.29 1.58 2.06 2.39 2.59 2.50 2.33 2.16 2.02 2.01
1.99 1.91 1.87 1.92 1.99 2.04 2.14 2.32 2.33 2.39 2.57 2.76 2.78 2.72 2.72 2.57 2.49 2.51 2.28 1.93 1.84 1.73 1.64 1.58 1.56 1.65 1.75 1.86 1.89 1.79 1.35 1.23 1.17 1.12 1.08 1.19 1.58 2.06 2.48 2.62 2.61 2.40 2.38
1.61 1.58 1.61 1.70 1.83 1.92 2.01 2.17 2.23 2.20 2.28 2.34 2.38 2.52 2.62 2.52 2.33 2.27 2.29 2.35 2.10 1.86 1.68 1.53 1.47 1.49 1.57 1.61 1.74 1.74 1.30 1.15 1.10 1.04 0.98 0.87 0.95 1.20 1.63 2.01 2.16 2.28 2.48
1.22 1.24 1.30 1.43 1.62 1.75 1.79 1.90 2.06 2.05 2.11 2.11 2.18 2.25 2.28 2.34 2.21 2.04 2.01 2.11 2.24 2.04 1.89 1.69 1.47 1.29 1.37 1.38 1.45 1.28 1.21 1.15 1.03 0.96 0.92 0.85 0.79 0.84 1.04 1.39 1.52 1.48 1.57
1.08 1.17 1.19 1.25 1.38 1.48 1.56 1.73 1.87 1.96 2.00 1.97 1.96 2.04 2.08 2.13 2.14 2.12 2.09 2.08 2.07 2.01 1.92 1.72 1.43 1.16 1.24 1.31 1.45 1.26 1.29 1.38 1.17 1.02 0.91 0.89 0.87 0.82 0.85 0.99 1.08 0.98 0.94
1.08 1.14 1.18 1.21 1.24 1.33 1.38 1.49 1.63 1.78 1.81 1.82 1.72 1.75 1.87 1.92 2.10 2.14 2.11 2.07 2.04 1.95 1.82 1.73 1.49 1.26 1.26 1.33 1.41 1.33 1.35 1.36 1.19 1.11 1.01 0.96 0.87 0.90 0.93 0.96 1.03 0.95 0.81
0.95 1.04 1.15 1.13 1.12 1.17 1.26 1.36 1.46 1.53 1.64 1.60 1.51 1.53 1.64 1.70 1.84 1.96 2.06 1.98 1.97 1.92 1.91 1.87 1.64 1.43 1.35 1.37 1.44 1.41 1.30 1.27 1.25 1.24 1.14 1.07 0.98 0.91 0.95 0.94 1.04 1.09 1.00
0.87 0.99 1.12 1.24 1.16 1.06 1.16 1.25 1.29 1.32 1.35 1.30 1.28 1.33 1.39 1.45 1.58 1.69 1.79 1.88 1.90 1.82 1.92 1.91 1.71 1.50 1.37 1.33 1.37 1.34 1.31 1.36 1.26 1.28 1.25 1.14 1.09 1.01 1.01 1.00 1.00 1.09 1.09
0.71 0.76 0.90 1.02 1.08 1.04 1.01 1.02 1.06 1.22 1.22 1.13 1.05 1.04 1.07 1.09 1.21 1.34 1.45 1.60 1.77 1.89 1.97 1.99 1.85 1.59 1.40 1.34 1.39 1.44 1.45 1.39 1.40 1.27 1.28 1.27 1.26 1.20 1.12 1.12 1.03 1.01 1.07
0.58 0.64 0.80 0.96 1.03 1.03 1.05 1.05 0.99 1.04 1.10 1.12 1.05 0.94 0.87 0.86 0.96 1.04 1.14 1.40 1.61 1.77 1.91 1.98 1.90 1.72 1.54 1.45 1.40 1.39 1.49 1.59 1.59 1.43 1.38 1.29 1.25 1.12 1.02 1.05 1.04 0.97 0.95
0.56 0.57 0.65 0.80 0.95 0.92 1.08 1.13 1.06 0.98 0.99 1.00 1.00 0.98 0.97 0.92 0.80 0.76 0.83 1.00 1.25 1.46 1.64 1.77 1.80 1.66 1.49 1.45 1.49 1.49 1.48 1.56 1.61 1.46 1.42 1.49 1.42 1.28 1.14 1.03 1.09 1.01 0.95
0.54 0.54 0.60 0.72 0.86 1.00 1.03 0.91 0.98 0.99 0.97 0.98 0.95 0.94 0.97 0.95 1.00 0.90 0.84 0.83 0.86 1.04 1.29 1.50 1.54 1.49 1.55 1.48 1.43 1.39 1.37 1.37 1.38 1.39 1.42 1.46 1.45 1.33 1.16 1.10 1.19 1.13 1.06
0.53 0.53 0.55 0.60 0.68 0.87 0.93 0.81 0.99 1.02 1.03 1.03 1.01 1.02 1.05 1.07 1.03 1.15 1.12 1.02 0.95 0.94 1.04 1.00 1.10 1.38 1.50 1.51 1.50 1.51 1.54 1.45 1.38 1.36 1.32 1.36 1.31 1.25 1.14 1.07 1.12 1.07 1.00
0.54 0.52 0.50 0.52 0.55 0.64 0.73 0.70 0.84 0.98 1.08 1.09 0.98 0.97 1.02 1.05 1.24 1.29 1.19 1.17 1.08 1.03 1.17 1.19 1.21 1.27 1.35 1.35 1.35 1.43 1.50 1.45 1.39 1.32 1.25 1.18 1.13 1.22 1.26 1.17 1.12 1.18 1.12
0.62 0.55 0.50 0.49 0.52 0.54 0.67 0.55 0.66 0.83 1.00 1.13 1.07 1.00 1.15 1.11 1.11 1.07 1.03 1.22 1.18 1.07 0.98 0.95 0.97 1.03 1.05 1.11 1.18 1.20 1.35 1.38 1.32 1.32 1.21 1.16 1.12 1.20 1.26 1.18 1.06 1.03 1.08